SONDERBORG_AIRPORT current weather conditions

sailwx.info

Wind from 220 at 6 knots

Air temperature 5.0° C
Visibility: greater than 5.4 NM
Dewpoint 3.0° C

Last reported at 2019-Dec-15 21:50 UTC.
Time now 2019-Dec-15 23:19 UTC

Location: N 54°58' E 009°48'.
View on Google Maps.

See reports from other nearby stations

  
Tides and Currents Weather Stations Pressure Air Temp Water Temp Dewpoint Dewpoint Depression Visibility Wind Speed Wind Dir Waves Ship Positions
date/time (UTC)wind fromknots sea level pressurealtimeterstation pressurevisibilityair tempwater tempwave heightnotes
2019-Dec-15 21:50 220 6 5.4 5.0
2019-Dec-15 21:20 230 6 5.4 6.0
2019-Dec-15 20:50 230 6 5.4 6.0
2019-Dec-15 20:20 240 8 5.4 6.0
2019-Dec-15 19:50 240 9 5.4 6.0
2019-Dec-15 19:20 240 9 gusting 20 5.4 6.0 Light rain showers.
2019-Dec-15 18:50 240 13 gusting 27 5.4 6.0
2019-Dec-15 18:20 250 11 5.4 6.0
2019-Dec-15 17:50 240 12 5.4 6.0
2019-Dec-15 17:20 250 15 gusting 28 5.4 6.0 Light rain showers.
2019-Dec-15 16:50 250 15 5.4 6.0 Light rain showers.
2019-Dec-15 16:20 250 17 gusting 31 5.4 7.0
2019-Dec-15 15:51 250 19 gusting 32 5.4 7.0
2019-Dec-15 15:20 250 20 gusting 32 5.4 6.0 Light rain showers.
2019-Dec-15 14:50 260 18 5.4 6.0 Light rain showers.
2019-Dec-15 14:20 250 22 gusting 39 3.2 7.0 Light rain showers.
2019-Dec-15 13:50 250 21 gusting 38 3.2 6.0 Light rain showers.
2019-Dec-15 13:20 230 20 gusting 34 5.4 6.0 Light rain showers.
2019-Dec-15 12:50 240 25 gusting 44 4.9 7.0 Light rain.
2019-Dec-15 12:20 230 20 gusting 39 5.4 7.0
2019-Dec-15 11:50 230 19 gusting 38 5.4 7.0
2019-Dec-15 11:20 220 11 gusting 22 5.4 6.0
2019-Dec-15 10:50 240 15 gusting 33 4.9 5.0 Light rain.
2019-Dec-15 10:20 240 13 gusting 34 3.2 6.0 Heavy rain showers.
2019-Dec-15 09:50 230 12 5.4 5.0 Light rain showers.
2019-Dec-15 09:20 220 20 gusting 42 2.4 6.0 Light rain showers.
2019-Dec-15 08:50 180 12 5.4 5.0 Drizzle.
2019-Dec-15 08:20 170 14 5.4 5.0 Light rain.
2019-Dec-15 07:50 150 14 4.3 4.0 Rain.
2019-Dec-15 07:20 150 13 5.4 4.0 Light rain.
2019-Dec-15 06:50 160 12 5.4 4.0 Drizzle.
2019-Dec-15 06:20 150 11 5.4 4.0
2019-Dec-15 05:50 160 9 5.4 4.0
2019-Dec-15 05:20 180 7 5.4 4.0
2019-Dec-15 04:50 190 8 5.4 4.0
2019-Dec-15 04:20 190 11 5.4 4.0
2019-Dec-15 03:50 190 6 5.4 4.0
2019-Dec-15 03:20 200 6 5.4 5.0
2019-Dec-15 02:50 220 7 5.4 5.0
2019-Dec-15 02:20 210 8 5.4 5.0
2019-Dec-15 01:50 220 7 5.4 5.0
2019-Dec-15 01:20 230 8 5.4 5.0
2019-Dec-15 00:50 240 11 5.4 5.0 Light rain showers.
2019-Dec-15 00:20 240 9 gusting 27 5.4 6.0 Light drizzle.
2019-Dec-14 23:50 240 11 5.4 6.0
2019-Dec-14 23:20 240 9 5.4 5.0
2019-Dec-14 22:50 240 9 5.4 5.0
2019-Dec-14 22:20 230 6 5.4 5.0
2019-Dec-14 21:50 240 13 gusting 24 5.4 5.0 Light rain showers.
2019-Dec-14 21:20 230 7 5.4 6.0
2019-Dec-14 20:50 220 7 5.4 5.0
2019-Dec-14 20:20 250 11 5.4 6.0 Light rain showers.
2019-Dec-14 19:50 240 8 5.4 5.0
2019-Dec-14 19:20 250 13 gusting 22 5.4 6.0 Light rain showers.
2019-Dec-14 18:50 230 8 gusting 19 5.4 6.0
2019-Dec-14 18:20 240 11 5.4 6.0 Light drizzle.
2019-Dec-14 17:50 240 13 gusting 27 5.4 6.0
2019-Dec-14 17:20 230 12 5.4 6.0
2019-Dec-14 16:50 230 6 5.4 5.0 Rain.
2019-Dec-14 16:20 250 12 gusting 22 4.3 5.0 Rain.
2019-Dec-14 15:50 230 12 gusting 25 5.4 5.0 Light rain.
2019-Dec-14 15:20 230 11 5.4 5.0 Rain.
2019-Dec-14 14:50 240 13 gusting 25 5.4 5.0 Light rain.
2019-Dec-14 14:20 230 11 gusting 24 5.4 6.0 Light rain showers.
2019-Dec-14 13:50 230 11 4.3 6.0 Light rain showers.
2019-Dec-14 13:20 220 9 gusting 20 5.4 6.0
2019-Dec-14 12:51 200 12 5.4 6.0
2019-Dec-14 12:20 210 9 5.4 5.0 Light rain showers.
2019-Dec-14 11:50 200 8 5.4 5.0
2019-Dec-14 11:20 210 11 5.4 5.0 Light rain.
2019-Dec-14 10:20 200 8 5.4 5.0 Light rain.
2019-Dec-14 09:50 190 8 2.7 5.0 Light rain drizzle.
2019-Dec-14 09:20 190 8 2.2 5.0 Light rain drizzle.
2019-Dec-14 08:50 190 7 4.3 5.0 Light rain.
2019-Dec-14 08:20 190 8 3.2 5.0
2019-Dec-14 07:50 190 7 2.7 5.0 Light drizzle.
2019-Dec-14 07:20 180 7 2.7 4.0
2019-Dec-14 06:52 180 6 2.4 4.0 Mist.
2019-Dec-14 06:20 170 6 1.9 4.0 Light drizzle. Mist.
2019-Dec-14 05:50 170 5 1.1 3.0 Drizzle. Mist.
2019-Dec-14 05:20 170 6 1.8 3.0 Mist.
2019-Dec-14 04:50 170 6 2.3 3.0 Mist.
2019-Dec-14 04:20 160 6 2.7 2.0 Light rain showers.
2019-Dec-14 03:50 160 6 2.7 2.0 Drizzle.
2019-Dec-14 03:20 160 6 2.7 2.0 Light rain.
2019-Dec-14 02:20 170 6 2.7 2.0 Light rain.
2019-Dec-14 01:50 160 6 2.3 2.0 Light rain snow.
2019-Dec-14 01:20 160 6 1.9 2.0 Light rain.
2019-Dec-14 00:50 160 6 2.2 2.0 Light rain. Mist.
2019-Dec-14 00:20 150 6 2.3 2.0 Light rain. Mist.
2019-Dec-13 23:50 160 6 2.5 2.0 Light rain. Mist.
2019-Dec-13 23:20 160 6 2.7 2.0 Light rain.